[[{"header":{"parameterUnit":"m.s-1","parameterCategory":2,"la1":30.2991,"la2":30.254,"lo1":-89.0895,"lo2":-89.0444,"dy":0.0017,"dx":0.0017,"nx":28,"ny":28,"refTime":"2024-04-02T21:00:00:Z","depth":"0","parameterNumber":2,"parameterNumberName":"U-component_of_CURRENTS"},"data":[0,0,0,0,0,0,0,0,0,0,0,0,0,0,0,0,0,0,0,0,0,0,0,0,0,0,0,0,0,0,0,0,0,0,0,0,0,0,0,0,0,0,0,0,0,0,0,0,0,0,0,0,0,0,0,0,0,0,-0.2881,-0.2881,0,-0.2929,-0.2929,-0.2929,-0.291,-0.2909,-0.2909,-0.2908,-0.2869,-0.2869,-0.2869,0,0,0,0,0,0,0,0,0,0,0,0,0,-0.276,-0.2762,-0.2881,-0.2881,-0.2882,-0.2929,-0.2929,-0.2929,-0.291,-0.2909,-0.2908,-0.2907,-0.2869,-0.2869,-0.2869,0,0,0,0,0,0,0,0,0,0,0,0,0,-0.2808,-0.2763,-0.288,-0.288,-0.2881,-0.2929,-0.2929,-0.293,-0.2911,-0.2909,-0.2908,-0.2907,-0.2869,-0.2869,-0.2869,-0.2893,0,0,-0.2868,-0.2867,0,0,0,0,0,0,0,0,-0.2805,-0.2812,-0.288,-0.2881,-0.2881,-0.2915,-0.2873,-0.2914,-0.2911,-0.2896,-0.2908,-0.2906,-0.2879,-0.2878,-0.2887,-0.2891,-0.2889,-0.2868,-0.2867,-0.2867,-0.2867,0,0,0,0,0,0,0,-0.2802,-0.281,-0.2897,-0.2881,-0.2882,-0.2874,-0.2879,-0.288,-0.2891,-0.2898,-0.2897,-0.2907,-0.2878,-0.2888,-0.2886,-0.2889,-0.2868,-0.2867,-0.2867,-0.2867,-0.2952,-0.2955,0,0,0,0,0,0,-0.2804,-0.2807,-0.2895,-0.2899,-0.2842,-0.2877,-0.2883,-0.2903,-0.2893,-0.2891,-0.2908,-0.2906,-0.2889,-0.2886,-0.2884,-0.2921,-0.2867,-0.2867,-0.2867,-0.295,-0.2953,-0.2955,0,0,0,0,0,0,-0.2802,-0.2812,-0.2893,-0.2855,-0.2865,-0.2881,-0.2904,-0.2905,-0.291,-0.2902,-0.2898,-0.2912,-0.2888,-0.2885,-0.2905,-0.2919,-0.2867,-0.2867,-0.2947,-0.2951,-0.2954,-0.2988,0,0,0,0,0,0,-0.2798,-0.2811,-0.2822,-0.2856,-0.2868,-0.293,-0.2905,-0.2907,-0.292,-0.2917,-0.2904,-0.2899,-0.2886,-0.2906,-0.2904,-0.2917,-0.2866,-0.2944,-0.2949,-0.2953,-0.2984,-0.2993,-0.3,0,0,0,0,0,-0.2794,-0.2817,-0.2822,-0.2832,-0.2884,-0.2931,-0.2937,-0.2941,-0.2921,-0.2936,-0.2935,-0.29,-0.2934,-0.2907,-0.2905,-0.2918,-0.2942,-0.2947,-0.2953,-0.2981,-0.2991,-0.3,0,0,0,0,0,0,-0.2766,-0.2819,-0.2824,-0.2861,-0.2897,-0.2929,-0.2941,-0.2944,-0.2955,-0.2947,-0.2927,-0.2925,-0.2948,-0.2942,-0.2913,-0.2963,-0.2933,-0.2939,-0.2956,-0.2965,-0.2973,-0.2955,-0.2866,0,0,0,0,0,-0.2768,-0.2797,-0.2847,-0.2873,-0.2893,-0.2916,-0.2932,-0.2942,-0.296,-0.2962,-0.2957,-0.296,-0.2973,-0.2974,-0.2985,-0.3009,-0.2987,-0.3021,-0.3029,-0.3036,-0.3025,-0.3014,-0.3018,-0.2974,-0.2974,-0.2973,0,0,-0.2759,-0.2795,-0.2808,-0.2869,-0.2891,-0.2934,-0.2921,-0.2955,-0.2983,-0.2957,-0.2982,-0.2985,-0.2989,-0.302,-0.3029,-0.301,-0.3044,-0.3043,-0.3048,-0.3033,-0.302,-0.3023,-0.3027,-0.2977,-0.2977,-0.2976,0,0,-0.2767,-0.2795,-0.2826,-0.2867,-0.2918,-0.2942,-0.2953,-0.2994,-0.3002,-0.304,-0.3029,-0.3043,-0.3063,-0.307,-0.3074,-0.3136,-0.3088,-0.3145,-0.3161,-0.3151,-0.3153,-0.3155,-0.3148,-0.3149,-0.3145,-0.3146,-0.3146,0,-0.2751,-0.2802,-0.284,-0.289,-0.2918,-0.2947,-0.2985,-0.3014,-0.3054,-0.306,-0.3053,-0.3087,-0.3086,-0.3115,-0.3139,-0.3148,-0.3134,-0.3116,-0.3157,-0.3158,-0.3159,-0.3151,-0.3151,-0.3148,-0.3148,-0.3147,-0.3147,0,-0.2792,-0.2831,-0.2854,-0.2924,-0.2965,-0.3002,-0.3056,-0.3085,-0.3093,-0.3112,-0.314,-0.3151,-0.3161,-0.3176,-0.3172,-0.319,-0.3177,-0.3165,-0.3119,-0.3164,-0.3155,-0.3155,-0.3151,-0.315,-0.315,-0.3149,0,0,-0.2742,-0.2857,-0.2861,-0.2896,-0.2983,-0.3017,-0.3075,-0.3124,-0.3144,-0.3176,-0.3193,-0.3224,-0.3212,-0.3218,-0.3217,-0.3213,-0.3216,-0.3191,-0.3189,-0.3161,-0.3192,-0.3114,-0.3106,-0.3202,-0.3202,-0.3202,-0.3187,0,-0.2748,-0.2833,-0.2892,-0.2958,-0.3001,-0.3058,-0.3109,-0.3159,-0.3187,-0.3217,-0.3225,-0.3244,-0.3235,-0.3235,-0.3232,-0.3225,-0.3214,-0.3221,-0.3172,-0.3171,-0.3076,-0.3102,-0.2968,-0.2937,-0.3186,-0.3186,-0.3186,0,-0.2755,-0.2813,-0.288,-0.2973,-0.2996,-0.304,-0.3106,-0.3153,-0.3211,-0.3232,-0.325,-0.326,-0.3274,-0.3251,-0.3242,-0.3245,-0.3215,-0.3203,-0.3201,-0.3108,-0.309,-0.2932,-0.2926,-0.2901,-0.3184,-0.3185,-0.3185,0,-0.2689,-0.2794,-0.2839,-0.2875,-0.2993,-0.3019,-0.3066,-0.3139,-0.3173,-0.3224,-0.3249,-0.3271,-0.3274,-0.3254,-0.3235,-0.3234,-0.3211,-0.3208,-0.311,-0.3105,-0.2969,-0.2952,-0.2906,-0.3177,-0.3177,-0.3177,-0.3177,0,-0.2669,-0.2699,-0.2808,-0.2836,-0.2878,-0.2972,-0.3013,-0.3067,-0.314,-0.3174,-0.3231,-0.3256,-0.3269,-0.3266,-0.324,-0.3171,-0.3211,-0.3105,-0.3089,-0.2982,-0.2966,-0.292,-0.2945,-0.3176,-0.3176,-0.3177,-0.3177,0,-0.2584,-0.2664,-0.2712,-0.2821,-0.285,-0.2868,-0.2971,-0.2998,-0.3086,-0.3131,-0.3146,-0.3235,-0.3232,-0.3236,-0.321,-0.3164,-0.3058,-0.3076,-0.2952,-0.292,-0.2792,-0.2825,-0.2759,-0.2681,-0.2966,-0.2963,-0.2962,0,-0.2547,-0.2564,-0.2664,-0.268,-0.2722,-0.2776,-0.2812,-0.2935,-0.2979,-0.3109,-0.3121,-0.3162,-0.3165,-0.312,-0.3044,-0.2974,-0.297,-0.2814,-0.2781,-0.2756,-0.2783,-0.2809,-0.275,-0.2632,-0.2627,-0.2624,-0.2621,0,-0.2448,-0.2479,-0.2515,-0.2559,-0.2594,-0.2648,-0.2717,-0.2756,-0.2897,-0.2954,-0.3024,-0.3039,-0.3022,-0.2903,-0.282,-0.2759,-0.2738,-0.2737,-0.2737,-0.2531,-0.253,-0.2455,-0.2691,-0.2589,-0.2592,-0.2595,-0.2596,-0.2598,-0.2337,-0.2331,-0.2377,-0.2401,-0.2447,-0.2485,-0.2473,-0.2579,-0.2631,-0.2683,-0.2818,-0.2801,-0.2776,-0.2638,-0.2584,-0.243,-0.2502,-0.2354,-0.2403,-0.2437,-0.2331,-0.2497,-0.2362,-0.2364,-0.2365,-0.2367,-0.2368,0,-0.2188,-0.2201,-0.2216,-0.2246,-0.2231,-0.2316,-0.2375,-0.2343,-0.2346,-0.2452,-0.2477,-0.248,-0.2362,-0.2355,-0.223,-0.2133,-0.2082,-0.2088,-0.2095,-0.2054,-0.2204,-0.2156,-0.1937,-0.1937,-0.1937,-0.1937,-0.1937,-0.1937,-0.2109,-0.2069,-0.2087,-0.2015,-0.2027,-0.1958,-0.1949,-0.1939,-0.1982,-0.1974,-0.2017,-0.2106,-0.2131,-0.2261,-0.212,-0.201,-0.1971,-0.1898,-0.1945,-0.2067,-0.2096,-0.2124,-0.2082,-0.1852,-0.1852,-0.1699,-0.1698,-0.1698]},{"header":{"parameterUnit":"m.s-1","parameterCategory":2,"la1":30.2991,"la2":30.254,"lo1":-89.0895,"lo2":-89.0444,"dy":0.0017,"dx":0.0017,"nx":28,"ny":28,"refTime":"2024-04-02T21:00:00:Z","depth":"0","parameterNumber":3,"parameterNumberName":"V-component_of_CURRENTS"},"data":[0,0,0,0,0,0,0,0,0,0,0,0,0,0,0,0,0,0,0,0,0,0,0,0,0,0,0,0,0,0,0,0,0,0,0,0,0,0,0,0,0,0,0,0,0,0,0,0,0,0,0,0,0,0,0,0,0,0,-0.0037,-0.0036,0,0.0064,0.0065,0.0066,0.014,0.014,0.0141,0.0141,0.0288,0.0291,0.0295,0,0,0,0,0,0,0,0,0,0,0,0,0,-0.0109,-0.0109,-0.0037,-0.0036,-0.0035,0.0063,0.0065,0.0067,0.014,0.014,0.0141,0.0141,0.0287,0.0291,0.0295,0,0,0,0,0,0,0,0,0,0,0,0,0,-0.0048,-0.0108,-0.0038,0.0012,0.0017,0.0063,0.0065,0.0067,0.014,0.014,0.0141,0.0142,0.0285,0.0291,0.0296,0.0315,0,0,0.0312,0.0314,0,0,0,0,0,0,0,0,-0.0052,-0.0046,0.0003,0.0008,0.0014,0.0088,0.0093,0.0152,0.014,0.0095,0.0141,0.0142,0.0223,0.0234,0.0254,0.0322,0.0329,0.0312,0.0316,0.0318,0.0319,0,0,0,0,0,0,0,-0.0056,-0.0049,0.0005,0.0004,0.0011,0.0048,0.0057,0.0105,0.0157,0.0099,0.0104,0.0112,0.0227,0.0249,0.0258,0.0331,0.0312,0.0317,0.032,0.0322,0.0438,0.0438,0,0,0,0,0,0,-0.0077,-0.0054,0.0002,0.0008,-0.002,0.0048,0.0059,0.0065,0.0156,0.0169,0.0111,0.0115,0.0239,0.0252,0.0263,0.0289,0.0318,0.0323,0.0326,0.0438,0.0438,0.0438,0,0,0,0,0,0,-0.0079,-0.0073,-0.0002,-0.0022,-0.0011,0.0048,0.0056,0.0067,0.0087,0.0164,0.0179,0.0119,0.024,0.0256,0.0303,0.0295,0.0325,0.033,0.0438,0.0438,0.0438,0.0341,0,0,0,0,0,0,-0.0081,-0.0074,-0.008,-0.0024,-0.0011,0.0012,0.0055,0.0068,0.009,0.0096,0.0176,0.019,0.0242,0.0295,0.0308,0.0303,0.0334,0.0438,0.0438,0.0438,0.0345,0.0338,0.0332,0,0,0,0,0,-0.0084,-0.0099,-0.0081,-0.0074,-0.0019,0.0011,0.0021,0.0068,0.0089,0.009,0.0148,0.0188,0.0303,0.0299,0.0315,0.0311,0.0438,0.0438,0.0438,0.0347,0.0339,0.0332,0,0,0,0,0,0,-0.0135,-0.0091,-0.007,-0.0071,-0.0038,0.0023,0.0025,0.0059,0.0105,0.0112,0.0187,0.0206,0.0243,0.0291,0.0284,0.0345,0.0377,0.038,0.0303,0.0296,0.029,0.0273,0.0338,0,0,0,0,0,-0.015,-0.0149,-0.0099,-0.0102,-0.0089,-0.0033,-0.0016,0.0015,0.0064,0.0085,0.0142,0.0203,0.0254,0.0285,0.0335,0.0368,0.0421,0.0377,0.0371,0.0365,0.0364,0.0435,0.0435,0.0437,0.0437,0.0437,0,0,-0.0171,-0.0148,-0.0147,-0.0113,-0.0083,-0.0075,-0.0021,-0.0004,0.0008,0.0094,0.0123,0.018,0.0258,0.0294,0.0315,0.0334,0.0391,0.0365,0.0359,0.0361,0.0435,0.0434,0.0434,0.0437,0.0437,0.0437,0,0,-0.0221,-0.0192,-0.0211,-0.0187,-0.0152,-0.0114,-0.0115,-0.0059,-0.0029,0.0006,0.0071,0.0123,0.0198,0.0255,0.0293,0.0285,0.0352,0.0298,0.0258,0.0327,0.0327,0.0328,0.0384,0.0391,0.0299,0.0299,0.0298,0,-0.0251,-0.0262,-0.0212,-0.0222,-0.021,-0.0139,-0.0153,-0.0112,-0.0048,-0.0023,0.0,0.0122,0.0181,0.0242,0.0238,0.027,0.0316,0.0276,0.0317,0.0319,0.0322,0.038,0.0389,0.0294,0.0294,0.0295,0.0295,0,-0.0309,-0.0317,-0.0326,-0.0311,-0.029,-0.0292,-0.023,-0.0204,-0.0158,-0.0109,-0.0045,0.0044,0.0118,0.0143,0.0188,0.0236,0.0264,0.0295,0.0331,0.0316,0.0378,0.0389,0.0287,0.0289,0.029,0.0291,0,0,-0.0378,-0.0372,-0.0375,-0.0388,-0.0338,-0.0332,-0.0306,-0.0262,-0.0243,-0.0168,-0.0133,-0.004,0.0018,0.0066,0.0136,0.0198,0.025,0.0244,0.025,0.029,0.0394,0.0455,0.0473,0.0286,0.0288,0.0289,0.0426,0,-0.0441,-0.049,-0.0458,-0.0494,-0.0509,-0.0437,-0.0418,-0.0362,-0.0298,-0.0244,-0.0134,-0.0075,-0.0012,0.0023,0.0094,0.0216,0.0275,0.021,0.0412,0.0418,0.0466,0.0487,0.0515,0.0643,0.0437,0.0439,0.044,0,-0.0507,-0.053,-0.0581,-0.0584,-0.0583,-0.0584,-0.0537,-0.051,-0.0403,-0.0352,-0.0261,-0.0169,-0.0058,-0.0009,0.0191,0.0145,0.0254,0.0348,0.0356,0.0456,0.05,0.0629,0.0671,0.0841,0.0457,0.0456,0.0455,0,-0.0583,-0.0616,-0.0663,-0.0663,-0.0647,-0.065,-0.0631,-0.0544,-0.0521,-0.0414,-0.0377,-0.0229,-0.015,0.0009,0.0212,0.0199,0.0435,0.0446,0.0603,0.0608,0.0696,0.0707,0.092,0.0576,0.0576,0.0575,0.0575,0,-0.066,-0.0698,-0.0707,-0.0732,-0.0779,-0.0729,-0.0742,-0.0696,-0.0618,-0.0586,-0.044,-0.0369,-0.0143,0.0028,0.0199,0.0448,0.0432,0.0606,0.0655,0.0662,0.0668,0.0872,0.0937,0.058,0.0579,0.0578,0.0577,0,-0.0735,-0.074,-0.0799,-0.0811,-0.0819,-0.0849,-0.0835,-0.0834,-0.0746,-0.0695,-0.0665,-0.0469,-0.0233,0.0008,0.0283,0.0435,0.078,0.0746,0.0736,0.0782,0.1073,0.1129,0.1394,0.151,0.0935,0.0938,0.094,0,-0.078,-0.0816,-0.0869,-0.0912,-0.0925,-0.0953,-0.0967,-0.0907,-0.0893,-0.0743,-0.0722,-0.0491,-0.0296,0.014,0.0448,0.0775,0.0904,0.0974,0.0958,0.111,0.121,0.1243,0.1323,0.1032,0.1035,0.1037,0.1039,0,-0.0858,-0.0872,-0.0921,-0.101,-0.1055,-0.1098,-0.1107,-0.1115,-0.1019,-0.0939,-0.0779,-0.0607,-0.0168,0.0242,0.0665,0.085,0.1109,0.1028,0.12,0.1322,0.136,0.1486,0.0909,0.1058,0.1056,0.1055,0.1054,0.1053,-0.0907,-0.0962,-0.1023,-0.1107,-0.1166,-0.1219,-0.124,-0.1216,-0.117,-0.1017,-0.0832,-0.0532,0.0061,0.0679,0.0909,0.1351,0.13,0.1461,0.1522,0.1545,0.1653,0.1113,0.1307,0.1307,0.1306,0.1306,0.1306,0,-0.0964,-0.1023,-0.1114,-0.1208,-0.1284,-0.1287,-0.1312,-0.1287,-0.1219,-0.1021,-0.0809,-0.0163,0.0421,0.095,0.1601,0.1834,0.1879,0.193,0.1984,0.2047,0.1592,0.1592,0.1839,0.1839,0.1838,0.1838,0.1838,0.1838,-0.0995,-0.1092,-0.1141,-0.1281,-0.1341,-0.1392,-0.1398,-0.1334,-0.1189,-0.0833,-0.0476,-0.0158,0.0588,0.1659,0.2247,0.2286,0.2491,0.2448,0.2577,0.2249,0.2209,0.2171,0.219,0.2557,0.2558,0.301,0.3014,0.3017]}],[{"header":{"parameterUnit":"m.s-1","parameterCategory":2,"la1":30.2991,"la2":30.254,"lo1":-89.0895,"lo2":-89.0444,"dy":0.0017,"dx":0.0017,"nx":28,"ny":28,"refTime":"2024-04-02T21:00:00:Z","depth":"2","parameterNumber":2,"parameterNumberName":"U-component_of_CURRENTS"},"data":[0,0,0,0,0,0,0,0,0,0,0,0,0,0,0,0,0,0,0,0,0,0,0,0,0,0,0,0,0,0,0,0,0,0,0,0,0,0,0,0,0,0,0,0,0,0,0,0,0,0,0,0,0,0,0,0,0,0,-0.2501,-0.2502,0,-0.2553,-0.2553,-0.2554,-0.2546,-0.2545,-0.2544,-0.2544,-0.2525,-0.2525,-0.2525,0,0,0,0,0,0,0,0,0,0,0,0,0,-0.2393,-0.2395,-0.2501,-0.2502,-0.2503,-0.2553,-0.2553,-0.2554,-0.2546,-0.2545,-0.2544,-0.2544,-0.2525,-0.2525,-0.2525,0,0,0,0,0,0,0,0,0,0,0,0,0,-0.2439,-0.2395,-0.2501,-0.2506,-0.2508,-0.2553,-0.2553,-0.2554,-0.2546,-0.2545,-0.2544,-0.2543,-0.2525,-0.2525,-0.2525,-0.2546,0,0,-0.2526,-0.2526,0,0,0,0,0,0,0,0,-0.2437,-0.2443,-0.2505,-0.2506,-0.2508,-0.2544,-0.2509,-0.2549,-0.2546,-0.2529,-0.2544,-0.2543,-0.2527,-0.2527,-0.2537,-0.2545,-0.2545,-0.2526,-0.2526,-0.2526,-0.2526,0,0,0,0,0,0,0,-0.2434,-0.2441,-0.2519,-0.2506,-0.2508,-0.2506,-0.2511,-0.2516,-0.253,-0.253,-0.253,-0.2541,-0.2527,-0.2537,-0.2536,-0.2544,-0.2526,-0.2526,-0.2526,-0.2526,-0.2616,-0.2618,0,0,0,0,0,0,-0.2434,-0.2438,-0.2517,-0.2521,-0.2472,-0.2509,-0.2515,-0.2531,-0.2531,-0.2532,-0.2541,-0.254,-0.2537,-0.2536,-0.2535,-0.2581,-0.2526,-0.2526,-0.2527,-0.2614,-0.2617,-0.2619,0,0,0,0,0,0,-0.2431,-0.2441,-0.2515,-0.2482,-0.2491,-0.2512,-0.2531,-0.2533,-0.2544,-0.2541,-0.2539,-0.255,-0.2536,-0.2535,-0.256,-0.2579,-0.2526,-0.2527,-0.2611,-0.2615,-0.2618,-0.2659,0,0,0,0,0,0,-0.2428,-0.244,-0.245,-0.2482,-0.2493,-0.2552,-0.2532,-0.2535,-0.2553,-0.2551,-0.2548,-0.2545,-0.2535,-0.256,-0.256,-0.2579,-0.2527,-0.2608,-0.2613,-0.2617,-0.2655,-0.2664,-0.2671,0,0,0,0,0,-0.2424,-0.2445,-0.245,-0.246,-0.2508,-0.2553,-0.2559,-0.2568,-0.2554,-0.2571,-0.2574,-0.2545,-0.2587,-0.2562,-0.2562,-0.2581,-0.2606,-0.2611,-0.2616,-0.2651,-0.2662,-0.2671,0,0,0,0,0,0,-0.2401,-0.2448,-0.2454,-0.2487,-0.2522,-0.2553,-0.2568,-0.2573,-0.259,-0.2585,-0.2572,-0.2571,-0.2601,-0.2595,-0.2568,-0.2624,-0.2593,-0.2598,-0.262,-0.263,-0.2638,-0.2623,-0.2527,0,0,0,0,0,-0.2403,-0.2429,-0.2474,-0.2499,-0.2518,-0.2543,-0.256,-0.2572,-0.2593,-0.2598,-0.2599,-0.2607,-0.2624,-0.2629,-0.2642,-0.267,-0.2649,-0.2686,-0.2694,-0.27,-0.2692,-0.2687,-0.2692,-0.2636,-0.2636,-0.2636,0,0,-0.2397,-0.2428,-0.244,-0.2495,-0.2518,-0.256,-0.255,-0.2586,-0.2616,-0.2594,-0.2628,-0.2633,-0.264,-0.2675,-0.2687,-0.2669,-0.2711,-0.2707,-0.2712,-0.27,-0.2693,-0.2698,-0.2702,-0.2639,-0.2639,-0.2638,0,0,-0.2406,-0.2431,-0.2459,-0.2498,-0.2547,-0.2571,-0.2584,-0.2626,-0.2639,-0.2681,-0.2674,-0.2693,-0.2719,-0.2728,-0.2735,-0.2798,-0.2755,-0.2807,-0.2829,-0.2825,-0.2828,-0.2831,-0.2822,-0.2824,-0.2809,-0.2809,-0.2809,0,-0.2394,-0.2439,-0.2474,-0.2519,-0.2548,-0.2578,-0.2617,-0.2648,-0.2692,-0.2703,-0.2698,-0.2742,-0.2744,-0.2779,-0.2803,-0.2812,-0.2799,-0.2785,-0.2831,-0.2833,-0.2835,-0.2826,-0.2827,-0.2811,-0.2811,-0.2811,-0.281,0,-0.2431,-0.2469,-0.2491,-0.2556,-0.2597,-0.2635,-0.2689,-0.2722,-0.2737,-0.2759,-0.2797,-0.281,-0.2827,-0.2843,-0.2839,-0.2866,-0.285,-0.2839,-0.2795,-0.2842,-0.2831,-0.2831,-0.2815,-0.2814,-0.2813,-0.2813,0,0,-0.2387,-0.2493,-0.2498,-0.2533,-0.2617,-0.2652,-0.2713,-0.2767,-0.2793,-0.2831,-0.2857,-0.2894,-0.2886,-0.2895,-0.2895,-0.2896,-0.2906,-0.2873,-0.2872,-0.2846,-0.2891,-0.2809,-0.2802,-0.2896,-0.2897,-0.2897,-0.288,0,-0.2396,-0.2474,-0.2529,-0.2597,-0.264,-0.2698,-0.2752,-0.2807,-0.2841,-0.2878,-0.2893,-0.2919,-0.2912,-0.2916,-0.2919,-0.2912,-0.2907,-0.2911,-0.2865,-0.2864,-0.2769,-0.2799,-0.259,-0.255,-0.288,-0.288,-0.2879,0,-0.2403,-0.2457,-0.2524,-0.2617,-0.264,-0.2687,-0.2761,-0.2811,-0.2876,-0.2903,-0.2929,-0.2942,-0.2963,-0.2942,-0.294,-0.294,-0.2915,-0.2903,-0.2902,-0.2805,-0.2782,-0.2557,-0.2537,-0.2879,-0.2879,-0.2879,-0.2879,0,-0.2344,-0.2446,-0.2492,-0.2528,-0.2644,-0.2676,-0.2725,-0.2805,-0.2843,-0.2902,-0.2931,-0.296,-0.2968,-0.2954,-0.2936,-0.2936,-0.2918,-0.2914,-0.2817,-0.2812,-0.2612,-0.2588,-0.2895,-0.2895,-0.2895,-0.2895,-0.2895,0,-0.2327,-0.236,-0.2466,-0.2496,-0.2545,-0.2636,-0.2687,-0.2743,-0.2821,-0.2857,-0.292,-0.2946,-0.2968,-0.2968,-0.2943,-0.2877,-0.2921,-0.2815,-0.2799,-0.2624,-0.2602,-0.2869,-0.2867,-0.2895,-0.2895,-0.2895,-0.2895,0,-0.2253,-0.2328,-0.238,-0.249,-0.252,-0.2545,-0.2651,-0.2683,-0.2774,-0.2822,-0.284,-0.2929,-0.2927,-0.2937,-0.2916,-0.2872,-0.2827,-0.2788,-0.2582,-0.2541,-0.2724,-0.2724,-0.2682,-0.2679,-0.2676,-0.2674,-0.2672,0,-0.2219,-0.2241,-0.2343,-0.2361,-0.2406,-0.2467,-0.2505,-0.2627,-0.2671,-0.2799,-0.281,-0.2854,-0.285,-0.2809,-0.2737,-0.2668,-0.2752,-0.2443,-0.2402,-0.2713,-0.2701,-0.2706,-0.2709,-0.2163,-0.2157,-0.2152,-0.2148,0,-0.2134,-0.2169,-0.2208,-0.2255,-0.2294,-0.2348,-0.2418,-0.2454,-0.259,-0.2638,-0.2695,-0.2703,-0.2691,-0.2531,-0.2459,-0.2391,-0.2441,-0.2343,-0.2706,-0.2255,-0.2223,-0.2212,-0.2233,-0.2106,-0.211,-0.2113,-0.2115,-0.2117,-0.2038,-0.2038,-0.2088,-0.2118,-0.2164,-0.2196,-0.2183,-0.2277,-0.2316,-0.235,-0.2475,-0.2419,-0.243,-0.2205,-0.2103,-0.2019,-0.2179,-0.208,-0.2095,-0.2115,-0.2063,-0.2028,-0.1865,-0.1868,-0.187,-0.1873,-0.1875,0,-0.1909,-0.1926,-0.1945,-0.1977,-0.1964,-0.2045,-0.2092,-0.2052,-0.2032,-0.2101,-0.2107,-0.1924,-0.1825,-0.1843,-0.1647,-0.1615,-0.1597,-0.155,-0.1526,-0.1568,-0.1606,-0.1529,-0.119,-0.1188,-0.1186,-0.1184,0,0,-0.184,-0.181,-0.1827,-0.1764,-0.1778,-0.1709,-0.1693,-0.1657,-0.1668,-0.1597,-0.1574,-0.1713,-0.1783,-0.149,-0.1419,-0.1272,-0.1405,-0.1208,-0.1754,-0.1766,-0.1801,-0.1905,-0.1833,0,0,0,0,0]},{"header":{"parameterUnit":"m.s-1","parameterCategory":2,"la1":30.2991,"la2":30.254,"lo1":-89.0895,"lo2":-89.0444,"dy":0.0017,"dx":0.0017,"nx":28,"ny":28,"refTime":"2024-04-02T21:00:00:Z","depth":"2","parameterNumber":3,"parameterNumberName":"V-component_of_CURRENTS"},"data":[0,0,0,0,0,0,0,0,0,0,0,0,0,0,0,0,0,0,0,0,0,0,0,0,0,0,0,0,0,0,0,0,0,0,0,0,0,0,0,0,0,0,0,0,0,0,0,0,0,0,0,0,0,0,0,0,0,0,-0.0151,-0.015,0,-0.006,-0.0059,-0.0058,0.0008,0.0009,0.0009,0.001,0.0146,0.0149,0.0152,0,0,0,0,0,0,0,0,0,0,0,0,0,-0.0212,-0.0212,-0.0151,-0.015,-0.0149,-0.006,-0.0059,-0.0057,0.0008,0.0009,0.0009,0.001,0.0145,0.0149,0.0153,0,0,0,0,0,0,0,0,0,0,0,0,0,-0.0158,-0.0211,-0.0151,-0.0107,-0.0102,-0.0061,-0.0059,-0.0057,0.0008,0.0009,0.0009,0.001,0.0143,0.0148,0.0153,0.0172,0,0,0.0168,0.017,0,0,0,0,0,0,0,0,-0.0161,-0.0156,-0.0114,-0.011,-0.0105,-0.0038,-0.003,0.0021,0.0008,-0.0031,0.001,0.001,0.0087,0.0096,0.0114,0.0179,0.0185,0.0169,0.0172,0.0174,0.0175,0,0,0,0,0,0,0,-0.0165,-0.0159,-0.0113,-0.0113,-0.0107,-0.0073,-0.0065,-0.002,0.0026,-0.0028,-0.0023,-0.0017,0.009,0.0109,0.0118,0.0187,0.0168,0.0173,0.0176,0.0178,0.0287,0.0287,0,0,0,0,0,0,-0.0184,-0.0163,-0.0116,-0.011,-0.0135,-0.0073,-0.0064,-0.0058,0.0025,0.0037,-0.0017,-0.0014,0.0101,0.0112,0.0123,0.0151,0.0174,0.0178,0.0181,0.0287,0.0287,0.0287,0,0,0,0,0,0,-0.0186,-0.0181,-0.0119,-0.0136,-0.0126,-0.0073,-0.0067,-0.0057,-0.0038,0.0032,0.0045,-0.0009,0.0102,0.0116,0.0161,0.0157,0.018,0.0185,0.0287,0.0287,0.0287,0.0207,0,0,0,0,0,0,-0.0188,-0.0182,-0.0187,-0.0137,-0.0126,-0.0105,-0.0068,-0.0056,-0.0035,-0.003,0.0043,0.0057,0.0103,0.0153,0.0166,0.0164,0.0189,0.0287,0.0287,0.0287,0.0209,0.0204,0.0199,0,0,0,0,0,-0.019,-0.0204,-0.0188,-0.0182,-0.0134,-0.0106,-0.0097,-0.0055,-0.0036,-0.0034,0.0019,0.0054,0.0162,0.0157,0.0172,0.0171,0.0287,0.0287,0.0287,0.0212,0.0205,0.0199,0,0,0,0,0,0,-0.0234,-0.0197,-0.0179,-0.018,-0.015,-0.0096,-0.0093,-0.0063,-0.0019,-0.0013,0.0055,0.0072,0.0108,0.0151,0.0144,0.0203,0.023,0.0233,0.0168,0.0162,0.0157,0.0142,0.0193,0,0,0,0,0,-0.0247,-0.0247,-0.0204,-0.0206,-0.0194,-0.0144,-0.0129,-0.0101,-0.0056,-0.0036,0.0015,0.0071,0.0119,0.0148,0.0193,0.0227,0.0273,0.0237,0.0232,0.0227,0.0225,0.0292,0.0293,0.0286,0.0286,0.0286,0,0,-0.0265,-0.0245,-0.0245,-0.0215,-0.0188,-0.0181,-0.0133,-0.0117,-0.0105,-0.0028,0.0001,0.0052,0.0123,0.0158,0.0179,0.0195,0.0251,0.0227,0.0222,0.0224,0.0292,0.0293,0.0293,0.0286,0.0286,0.0286,0,0,-0.0308,-0.0284,-0.03,-0.0278,-0.0247,-0.0213,-0.0213,-0.0163,-0.0136,-0.0102,-0.0044,0.0006,0.0074,0.0127,0.0163,0.0159,0.0218,0.017,0.0139,0.0203,0.0204,0.0205,0.0253,0.026,0.0172,0.0172,0.0172,0,-0.0334,-0.0344,-0.0301,-0.0308,-0.0297,-0.0234,-0.0245,-0.0208,-0.0149,-0.0126,-0.0106,0.0006,0.0061,0.012,0.0118,0.0147,0.0187,0.0153,0.0195,0.0198,0.0201,0.025,0.0258,0.0168,0.0169,0.0169,0.017,0,-0.0384,-0.039,-0.0397,-0.0384,-0.0365,-0.0365,-0.031,-0.0285,-0.0244,-0.0199,-0.0139,-0.0058,0.0011,0.0035,0.0076,0.0125,0.0147,0.0175,0.0207,0.0196,0.0249,0.0259,0.0163,0.0164,0.0165,0.0166,0,0,-0.0444,-0.0438,-0.044,-0.045,-0.0405,-0.04,-0.0374,-0.0333,-0.0314,-0.0246,-0.0212,-0.0124,-0.0072,-0.0028,0.0037,0.0095,0.0146,0.0136,0.0141,0.0175,0.0277,0.0314,0.0329,0.0181,0.0182,0.0184,0.0301,0,-0.0498,-0.0539,-0.0511,-0.054,-0.0553,-0.0488,-0.047,-0.0419,-0.036,-0.031,-0.0209,-0.0155,-0.0097,-0.0064,0.0004,0.0115,0.017,0.0111,0.029,0.0295,0.0323,0.0341,0.0299,0.0402,0.0311,0.0313,0.0314,0,-0.0555,-0.0573,-0.0617,-0.0618,-0.0617,-0.0617,-0.0573,-0.0548,-0.045,-0.0403,-0.0319,-0.0236,-0.0132,-0.0088,0.0096,0.0054,0.0152,0.0237,0.0244,0.0315,0.0351,0.0402,0.0425,0.0332,0.033,0.0329,0.0328,0,-0.0621,-0.0647,-0.0689,-0.0687,-0.0672,-0.0674,-0.0656,-0.0577,-0.0556,-0.0457,-0.0425,-0.0286,-0.0215,-0.0069,0.0111,0.0104,0.0312,0.0328,0.0453,0.0456,0.0475,0.0478,0.0448,0.0448,0.0448,0.0447,0.0447,0,-0.0687,-0.072,-0.0727,-0.0749,-0.079,-0.0745,-0.0755,-0.0713,-0.0643,-0.0616,-0.048,-0.0421,-0.0208,-0.0057,0.0098,0.0314,0.0309,0.0454,0.0496,0.0445,0.0444,0.0428,0.0424,0.0452,0.0451,0.045,0.0449,0,-0.0752,-0.0756,-0.0809,-0.0818,-0.0825,-0.0852,-0.084,-0.0839,-0.076,-0.0717,-0.0691,-0.0516,-0.031,-0.0089,0.0161,0.0296,0.0496,0.0567,0.0487,0.0518,0.0595,0.0585,0.0717,0.072,0.0722,0.0724,0.0725,0,-0.0793,-0.0825,-0.0871,-0.091,-0.0922,-0.0948,-0.0962,-0.0907,-0.0895,-0.077,-0.0754,-0.0553,-0.039,-0.0005,0.0269,0.0559,0.0557,0.0673,0.0658,0.0599,0.0626,0.0613,0.0601,0.0646,0.0647,0.0647,0.0648,0,-0.0864,-0.0876,-0.0919,-0.0999,-0.1042,-0.1081,-0.109,-0.1099,-0.1016,-0.095,-0.0821,-0.068,-0.0303,0.0025,0.0397,0.0551,0.0626,0.0694,0.0674,0.0582,0.0541,0.0564,0.0553,0.0653,0.0652,0.0652,0.0651,0.0651,-0.091,-0.0959,-0.1013,-0.1089,-0.1144,-0.1194,-0.1213,-0.1193,-0.1158,-0.1029,-0.0884,-0.0637,-0.0314,0.0219,0.0488,0.0721,0.0713,0.0767,0.0761,0.0756,0.0724,0.0689,0.0822,0.0822,0.0823,0.0823,0.0824,0,-0.0964,-0.1017,-0.1098,-0.1183,-0.1254,-0.1256,-0.1282,-0.126,-0.1207,-0.1041,-0.0868,-0.0514,-0.0132,0.0198,0.0585,0.0819,0.0786,0.084,0.0759,0.0752,0.0747,0.0711,0.0808,0.0809,0.0809,0.081,0,0,-0.0993,-0.108,-0.1123,-0.1252,-0.1308,-0.1357,-0.1365,-0.1309,-0.1184,-0.101,-0.0814,-0.053,-0.0122,0.0153,0.0448,0.0648,0.0634,0.0652,0.0638,0.05,0.0493,0.0676,0.0612,0,0,0,0,0]}],[{"header":{"parameterUnit":"m.s-1","parameterCategory":2,"la1":30.2991,"la2":30.254,"lo1":-89.0895,"lo2":-89.0444,"dy":0.0017,"dx":0.0017,"nx":28,"ny":28,"refTime":"2024-04-02T21:00:00:Z","depth":"4","parameterNumber":2,"parameterNumberName":"U-component_of_CURRENTS"},"data":[0,0,0,0,0,0,0,0,0,0,0,0,0,0,0,0,0,0,0,0,0,0,0,0,0,0,0,0,0,0,0,0,0,0,0,0,0,0,0,0,0,0,0,0,0,0,0,0,0,0,0,0,0,0,0,0,0,0,-0.174,-0.1741,0,-0.1824,-0.1824,-0.1825,-0.1874,-0.1874,-0.1875,-0.1875,-0.1938,-0.1939,-0.194,0,0,0,0,0,0,0,0,0,0,0,0,0,-0.1625,-0.1627,-0.174,-0.1741,-0.1742,-0.1824,-0.1825,-0.1826,-0.1874,-0.1874,-0.1875,-0.1875,-0.1937,-0.1939,-0.194,0,0,0,0,0,0,0,0,0,0,0,0,0,-0.1687,-0.1628,-0.1739,-0.1777,-0.1782,-0.1823,-0.1825,-0.1826,-0.1874,-0.1874,-0.1875,-0.1875,-0.1937,-0.1938,-0.194,-0.1942,0,0,-0.1947,-0.1947,0,0,0,0,0,0,0,0,-0.1683,-0.1691,-0.1771,-0.1775,-0.178,-0.184,-0.1807,-0.1864,-0.1874,-0.1837,-0.1875,-0.1876,-0.1904,-0.1909,-0.1921,-0.1945,-0.1948,-0.1947,-0.1948,-0.1949,-0.1949,0,0,0,0,0,0,0,-0.1679,-0.1688,-0.1771,-0.1772,-0.1777,-0.1792,-0.1801,-0.1818,-0.1865,-0.184,-0.1844,-0.1856,-0.1906,-0.1919,-0.1923,-0.1949,-0.1947,-0.1949,-0.195,-0.1951,-0.2087,-0.2089,0,0,0,0,0,0,-0.1672,-0.1684,-0.1769,-0.1774,-0.1734,-0.1793,-0.1804,-0.1819,-0.1865,-0.1873,-0.1856,-0.1858,-0.1915,-0.192,-0.1925,-0.2018,-0.1949,-0.1951,-0.1952,-0.2084,-0.2087,-0.209,0,0,0,0,0,0,-0.1669,-0.1679,-0.1765,-0.1732,-0.1744,-0.1795,-0.1812,-0.182,-0.1865,-0.1878,-0.1885,-0.1895,-0.1916,-0.1922,-0.1981,-0.2018,-0.1952,-0.1953,-0.2081,-0.2085,-0.2088,-0.2148,0,0,0,0,0,0,-0.1665,-0.1677,-0.1701,-0.1731,-0.1746,-0.1814,-0.1812,-0.1822,-0.187,-0.1875,-0.1913,-0.1917,-0.1917,-0.1978,-0.1983,-0.2019,-0.1955,-0.2078,-0.2083,-0.2087,-0.2143,-0.2153,-0.2162,0,0,0,0,0,-0.1661,-0.1687,-0.1701,-0.1713,-0.1772,-0.1815,-0.1825,-0.186,-0.1872,-0.19,-0.1933,-0.1918,-0.201,-0.1982,-0.1987,-0.2025,-0.2076,-0.2082,-0.2087,-0.2139,-0.2151,-0.2162,0,0,0,0,0,0,-0.1652,-0.1696,-0.1712,-0.1751,-0.1792,-0.1825,-0.1858,-0.1878,-0.1927,-0.1941,-0.1947,-0.1955,-0.2019,-0.2019,-0.1988,-0.208,-0.2041,-0.2048,-0.2079,-0.2091,-0.21,-0.2085,-0.1957,0,0,0,0,0,-0.1659,-0.1692,-0.1733,-0.1768,-0.1791,-0.183,-0.1858,-0.1884,-0.1923,-0.1946,-0.1975,-0.2008,-0.2041,-0.2064,-0.2091,-0.214,-0.2118,-0.217,-0.218,-0.2187,-0.2182,-0.2187,-0.2195,-0.2107,-0.2107,-0.2107,0,0,-0.1665,-0.1694,-0.1714,-0.1769,-0.1803,-0.1847,-0.1849,-0.1903,-0.1948,-0.1944,-0.2022,-0.2044,-0.2063,-0.2121,-0.215,-0.2129,-0.2205,-0.2194,-0.2201,-0.219,-0.2193,-0.2201,-0.2208,-0.2111,-0.211,-0.211,0,0,-0.1683,-0.1721,-0.1753,-0.1793,-0.1854,-0.188,-0.1903,-0.1959,-0.1996,-0.2066,-0.2076,-0.2123,-0.2179,-0.2198,-0.2211,-0.229,-0.2254,-0.2307,-0.2343,-0.2349,-0.2355,-0.236,-0.2348,-0.2351,-0.2312,-0.2312,-0.2312,0,-0.169,-0.1735,-0.1771,-0.1815,-0.1854,-0.1899,-0.1945,-0.199,-0.2062,-0.2093,-0.2104,-0.2193,-0.2212,-0.2266,-0.2298,-0.2309,-0.2299,-0.2294,-0.2358,-0.2362,-0.2366,-0.2353,-0.2356,-0.2316,-0.2315,-0.2315,-0.2315,0,-0.1725,-0.1776,-0.1801,-0.1871,-0.1918,-0.1968,-0.203,-0.2088,-0.2136,-0.2171,-0.2249,-0.2281,-0.2325,-0.2348,-0.2349,-0.2398,-0.2377,-0.2365,-0.2319,-0.2378,-0.2361,-0.2363,-0.2321,-0.232,-0.2319,-0.2318,0,0,-0.1694,-0.1803,-0.1815,-0.1859,-0.1953,-0.1991,-0.2075,-0.2149,-0.2199,-0.2271,-0.2326,-0.2393,-0.2403,-0.2419,-0.243,-0.2442,-0.247,-0.2422,-0.2421,-0.2394,-0.2471,-0.2308,-0.2293,-0.2469,-0.2469,-0.247,-0.2447,0,-0.1711,-0.1793,-0.1849,-0.1937,-0.1984,-0.2058,-0.2129,-0.2205,-0.2267,-0.2334,-0.2374,-0.243,-0.2432,-0.2457,-0.2474,-0.2474,-0.2478,-0.2476,-0.2432,-0.243,-0.2264,-0.2291,-0.2472,-0.2449,-0.2449,-0.2449,-0.2449,0,-0.1716,-0.1775,-0.186,-0.197,-0.1998,-0.2063,-0.2171,-0.2237,-0.2333,-0.2381,-0.2438,-0.2467,-0.2514,-0.25,-0.2519,-0.2518,-0.2499,-0.249,-0.2489,-0.231,-0.2269,-0.2379,-0.2452,-0.2452,-0.2452,-0.2452,-0.2452,0,-0.1658,-0.1777,-0.1845,-0.1885,-0.2019,-0.2077,-0.2145,-0.2251,-0.2304,-0.2402,-0.2443,-0.2502,-0.2531,-0.253,-0.2521,-0.2525,-0.2516,-0.2515,-0.2347,-0.2336,-0.2463,-0.2457,-0.2511,-0.2511,-0.2511,-0.2512,-0.2512,0,-0.1635,-0.1692,-0.183,-0.1869,-0.1951,-0.2052,-0.214,-0.2215,-0.2315,-0.2361,-0.2453,-0.2479,-0.254,-0.2545,-0.2528,-0.243,-0.2519,-0.2342,-0.2315,-0.2491,-0.249,-0.2464,-0.2459,-0.2511,-0.2511,-0.2511,-0.2511,0,-0.1558,-0.1651,-0.1734,-0.188,-0.1928,-0.1982,-0.2123,-0.2169,-0.2283,-0.2342,-0.2371,-0.2468,-0.2464,-0.2492,-0.2486,-0.2413,-0.2354,-0.2296,-0.2474,-0.2459,-0.2171,-0.217,-0.2104,-0.2098,-0.2092,-0.2088,-0.2085,0,-0.152,-0.156,-0.1717,-0.1758,-0.183,-0.1931,-0.1989,-0.2129,-0.2173,-0.2305,-0.2309,-0.2361,-0.24,-0.2255,-0.2307,-0.2244,-0.2219,-0.2179,-0.218,-0.2147,-0.2128,-0.2135,-0.2141,-0.2076,-0.2075,-0.2074,-0.2072,0,-0.144,-0.1511,-0.1575,-0.1667,-0.1741,-0.1814,-0.191,-0.1926,-0.2067,-0.2196,-0.2177,-0.2164,-0.2152,-0.2136,-0.2096,-0.2058,-0.2203,-0.2125,-0.2136,-0.2137,-0.2114,-0.2101,-0.2113,-0.2055,-0.2057,-0.2059,-0.206,0,-0.1368,-0.1389,-0.1481,-0.1544,-0.1629,-0.1657,-0.1733,-0.1779,-0.1839,-0.1993,-0.1976,-0.2033,-0.2123,-0.2036,-0.2003,-0.1947,-0.1921,-0.1864,-0.1888,-0.1909,-0.1854,-0.1797,-0.1603,0,0,0,0,0,-0.1287,-0.1297,-0.1347,-0.1408,-0.1485,-0.1534,-0.1658,-0.1737,-0.1879,-0.1809,-0.1888,-0.1866,-0.1817,-0.1853,-0.175,-0.1912,-0.1928,-0.1785,-0.1876,-0.1956,-0.1976,-0.1929,0,0,0,0,0,0,-0.1231,-0.1275,-0.1298,-0.1276,-0.1284,-0.1353,-0.1419,-0.1519,-0.1503,-0.1649,-0.1629,-0.1743,-0.172,-0.1831,-0.1705,-0.1714,-0.1731,-0.1834,-0.1829,-0.1944,-0.1963,-0.1979,-0.1938,0,0,0,0,0]},{"header":{"parameterUnit":"m.s-1","parameterCategory":2,"la1":30.2991,"la2":30.254,"lo1":-89.0895,"lo2":-89.0444,"dy":0.0017,"dx":0.0017,"nx":28,"ny":28,"refTime":"2024-04-02T21:00:00:Z","depth":"4","parameterNumber":3,"parameterNumberName":"V-component_of_CURRENTS"},"data":[0,0,0,0,0,0,0,0,0,0,0,0,0,0,0,0,0,0,0,0,0,0,0,0,0,0,0,0,0,0,0,0,0,0,0,0,0,0,0,0,0,0,0,0,0,0,0,0,0,0,0,0,0,0,0,0,0,0,-0.0155,-0.0155,0,-0.0094,-0.0093,-0.0092,-0.0046,-0.0046,-0.0046,-0.0045,0.0063,0.0066,0.0068,0,0,0,0,0,0,0,0,0,0,0,0,0,-0.019,-0.019,-0.0155,-0.0155,-0.0154,-0.0094,-0.0093,-0.0092,-0.0046,-0.0046,-0.0046,-0.0045,0.0062,0.0065,0.0069,0,0,0,0,0,0,0,0,0,0,0,0,0,-0.0155,-0.019,-0.0155,-0.0126,-0.0122,-0.0094,-0.0093,-0.0092,-0.0046,-0.0046,-0.0046,-0.0045,0.0061,0.0065,0.0069,0.0087,0,0,0.0081,0.0083,0,0,0,0,0,0,0,0,-0.0157,-0.0153,-0.013,-0.0128,-0.0124,-0.0079,-0.0065,-0.003,-0.0046,-0.0073,-0.0045,-0.0045,0.0018,0.0026,0.0039,0.0092,0.0097,0.0082,0.0084,0.0086,0.0087,0,0,0,0,0,0,0,-0.0159,-0.0155,-0.0129,-0.013,-0.0126,-0.01,-0.0095,-0.0058,-0.0028,-0.0071,-0.0068,-0.0064,0.0021,0.0035,0.0042,0.0098,0.0082,0.0085,0.0088,0.0089,0.018,0.018,0,0,0,0,0,0,-0.0173,-0.0158,-0.0131,-0.0127,-0.0142,-0.01,-0.0094,-0.0092,-0.0029,-0.002,-0.0064,-0.0062,0.0028,0.0037,0.0046,0.0071,0.0086,0.009,0.0092,0.018,0.018,0.018,0,0,0,0,0,0,-0.0174,-0.0172,-0.0133,-0.0143,-0.0136,-0.0101,-0.0098,-0.0091,-0.0078,-0.0025,-0.0015,-0.0059,0.0028,0.004,0.0076,0.0075,0.0091,0.0095,0.018,0.018,0.018,0.0121,0,0,0,0,0,0,-0.0176,-0.0172,-0.0178,-0.0144,-0.0136,-0.0125,-0.0098,-0.009,-0.0077,-0.0074,-0.0017,-0.0007,0.003,0.007,0.008,0.0081,0.0098,0.018,0.018,0.018,0.0123,0.0119,0.0116,0,0,0,0,0,-0.0177,-0.0188,-0.0179,-0.0176,-0.0145,-0.0125,-0.0119,-0.0091,-0.0078,-0.0077,-0.0036,-0.0008,0.0078,0.0073,0.0085,0.0087,0.018,0.018,0.018,0.0125,0.012,0.0116,0,0,0,0,0,0,-0.0206,-0.0184,-0.0173,-0.0176,-0.0157,-0.0119,-0.0118,-0.0097,-0.0064,-0.006,-0.0007,0.0006,0.0036,0.007,0.0064,0.0114,0.0133,0.0136,0.0087,0.0083,0.0079,0.0067,0.0101,0,0,0,0,0,-0.0217,-0.0219,-0.0191,-0.0195,-0.0188,-0.0154,-0.0143,-0.0124,-0.0091,-0.0076,-0.0037,0.0007,0.0046,0.007,0.0105,0.0135,0.0172,0.0144,0.0141,0.0137,0.0136,0.0195,0.0197,0.018,0.018,0.018,0,0,-0.023,-0.0218,-0.022,-0.0202,-0.0184,-0.018,-0.0146,-0.0136,-0.0128,-0.0069,-0.0048,-0.0007,0.0049,0.0079,0.0096,0.0109,0.0159,0.0137,0.0134,0.0134,0.0196,0.0197,0.0199,0.018,0.018,0.018,0,0,-0.0261,-0.0247,-0.0261,-0.0247,-0.0227,-0.0204,-0.0205,-0.017,-0.0151,-0.0126,-0.0081,-0.004,0.0014,0.0058,0.0087,0.0087,0.0133,0.0096,0.0074,0.0131,0.0133,0.0135,0.017,0.0176,0.0099,0.0099,0.0099,0,-0.028,-0.029,-0.0262,-0.0268,-0.0263,-0.022,-0.023,-0.0203,-0.016,-0.0142,-0.0129,-0.0039,0.0005,0.0057,0.0055,0.0079,0.0111,0.0084,0.0126,0.0129,0.0132,0.0168,0.0175,0.0096,0.0096,0.0096,0.0097,0,-0.0315,-0.0324,-0.0331,-0.0325,-0.0313,-0.0315,-0.0277,-0.026,-0.0232,-0.0199,-0.015,-0.0085,-0.003,-0.0009,0.0024,0.007,0.0083,0.0109,0.0134,0.013,0.0168,0.0176,0.0092,0.0093,0.0094,0.0094,0,0,-0.0356,-0.0358,-0.0361,-0.0373,-0.0344,-0.0342,-0.0325,-0.0296,-0.0284,-0.0232,-0.0206,-0.0132,-0.0091,-0.0056,-0.0002,0.0051,0.0096,0.0083,0.0088,0.0111,0.0208,0.0189,0.0197,0.0131,0.0132,0.0133,0.022,0,-0.0394,-0.0428,-0.0412,-0.044,-0.0451,-0.0409,-0.0397,-0.0361,-0.0319,-0.0283,-0.0201,-0.0159,-0.011,-0.0084,-0.0022,0.007,0.0118,0.007,0.0214,0.0218,0.0197,0.0206,0.0138,0.0227,0.0229,0.023,0.0231,0,-0.0432,-0.045,-0.0489,-0.0498,-0.0499,-0.0507,-0.048,-0.0464,-0.0391,-0.0357,-0.0289,-0.0224,-0.0135,-0.0099,0.0058,0.0025,0.0105,0.0176,0.0182,0.0192,0.0215,0.0237,0.0247,0.0246,0.0245,0.0244,0.0243,0,-0.0474,-0.0503,-0.0541,-0.0543,-0.0542,-0.0551,-0.0545,-0.0489,-0.0476,-0.0402,-0.038,-0.0262,-0.0206,-0.0081,0.0065,0.0065,0.0233,0.0254,0.0312,0.0311,0.0328,0.0326,0.0357,0.0357,0.0357,0.0357,0.0357,0,-0.0514,-0.0546,-0.0571,-0.059,-0.0633,-0.0606,-0.0625,-0.0597,-0.0549,-0.0531,-0.0426,-0.0381,-0.0198,-0.0078,0.0052,0.0205,0.0228,0.0308,0.0337,0.0299,0.0292,0.0334,0.033,0.036,0.0359,0.0359,0.0358,0,-0.0551,-0.0567,-0.0617,-0.0643,-0.0657,-0.0686,-0.0697,-0.0701,-0.0647,-0.0618,-0.0599,-0.0462,-0.0302,-0.0124,0.0086,0.0179,0.0333,0.0378,0.0309,0.0333,0.0372,0.0364,0.045,0.045,0.045,0.045,0.0451,0,-0.0573,-0.0602,-0.0666,-0.0707,-0.0728,-0.0764,-0.0786,-0.0756,-0.075,-0.0663,-0.065,-0.0502,-0.0391,-0.0111,0.0071,0.0312,0.0344,0.041,0.0406,0.0364,0.0384,0.0376,0.0368,0.0451,0.0451,0.0451,0.0451,0,-0.0612,-0.0639,-0.0682,-0.0764,-0.0816,-0.0861,-0.0883,-0.0886,-0.0831,-0.0793,-0.0675,-0.0518,-0.0341,-0.0118,0.0066,0.024,0.0364,0.0412,0.0413,0.0409,0.0366,0.0384,0.0376,0.0451,0.0451,0.0451,0.0451,0,-0.0641,-0.0683,-0.0743,-0.0814,-0.0886,-0.0929,-0.0935,-0.0908,-0.0887,-0.0777,-0.0741,-0.0534,-0.0407,-0.0156,0.0016,0.0183,0.0225,0.0271,0.028,0.0281,0.0207,0.0126,0.0163,0,0,0,0,0,-0.066,-0.071,-0.0785,-0.0859,-0.0932,-0.0963,-0.0987,-0.0973,-0.0922,-0.0847,-0.0785,-0.0612,-0.0336,-0.0215,-0.005,0.0003,0.0236,0.0198,0.0289,0.0453,0.0453,0.0393,0,0,0,0,0,0,-0.0675,-0.0747,-0.0785,-0.0879,-0.0934,-0.0998,-0.1013,-0.098,-0.0919,-0.0845,-0.0695,-0.0591,-0.0324,-0.043,-0.0053,-0.0002,0.0073,0.0336,0.0339,0.0454,0.0453,0.0453,0.0391,0,0,0,0,0]}]]